Fitchburg, MA

7:36 PM EST on December 08, 2019 (GMT -0500)
Fitchburg Municipal

Weather History for KFIT - August, 2019

Change the Weather History Date:

Tuesday, August 27, 2019

  Actual Average (WUND) Record (WUND)
Temperature  
Mean Temperature 62 °F -  
Max Temperature 78 °F - - (-1)
Min Temperature 48 °F - - (-1)
Degree Days  
Heating Degree Days 2    
Growing Degree Days 12 (Base 50)    
Moisture  
Dew Point 51 °F    
Average Humidity 64    
Maximum Humidity 93    
Minimum Humidity 40    
Precipitation  
Precipitation 0.00 in - - ()
Sea Level Pressure  
Sea Level Pressure 30.09 in    
Wind  
Wind Speed 3 mph ()    
Max Wind Speed 8 mph    
Max Gust Speed -    
Visibility 10.0 miles    
Events      
Averages and records for this station are not official NWS values.
T = Trace of Precipitation, MM = Missing Value Source: Averaged Metar Reports

Daily Weather History Graph

Daily Weather History Graph

Search for Another Location

Airport or City:

Astronomy

Aug. 27, 2019 Rise Set
Actual Time 6:06 AM EDT 7:30 PM EDT
Civil Twilight 5:37 AM EDT 7:59 PM EDT
Nautical Twilight 5:01 AM EDT 8:34 PM EDT
Astronomical Twilight 4:24 AM EDT 9:11 PM EDT
Moon 2:23 AM EDT (8/27) 5:52 PM EDT (8/27)
Length of Visible Light 14h 22m
Length of Day
13h 23m
Waning Crescent, 11% of the Moon is Illuminated
Aug 27
Waning Crescent
Aug 30
New
Sep 5
First Quarter
Sep 14
Full
Sep 21
Last Quarter

Hourly Weather History & Observations

Time (EDT) Temp. Dew Point Humidity Pressure Visibility Wind Dir Wind Speed Gust Speed Precip Events Conditions
12:52 AM 52.0 °F 48.0 °F 86% 30.17 in 10.0 mi Calm Calm - N/A   Clear
1:52 AM 50.0 °F 46.9 °F 89% 30.16 in 10.0 mi NNW 3.5 mph - N/A   Clear
2:52 AM 48.9 °F 46.0 °F 90% 30.15 in 10.0 mi North 3.5 mph - N/A   Clear
3:52 AM 50.0 °F 46.0 °F 86% 30.14 in 10.0 mi North 4.6 mph - N/A   Clear
4:52 AM 50.0 °F 46.0 °F 86% 30.14 in 10.0 mi North 5.8 mph - N/A   Clear
5:52 AM 48.0 °F 45.0 °F 89% 30.13 in 10.0 mi Calm Calm - N/A   Clear
6:52 AM 50.0 °F 48.0 °F 93% 30.14 in 10.0 mi Calm Calm - N/A   Clear
7:52 AM 57.9 °F 50.0 °F 75% 30.13 in 10.0 mi Calm Calm - N/A   Clear
8:52 AM 66.0 °F 53.1 °F 63% 30.13 in 10.0 mi Calm Calm - N/A   Clear
9:52 AM 70.0 °F 51.1 °F 51% 30.12 in 10.0 mi Calm Calm - N/A   Clear
10:52 AM 72.0 °F 50.0 °F 46% 30.12 in 10.0 mi WSW 5.8 mph - N/A   Clear
11:52 AM 72.0 °F 50.0 °F 46% 30.10 in 10.0 mi SSW 3.5 mph - N/A   Clear
12:52 PM 73.0 °F 50.0 °F 44% 30.08 in 10.0 mi West 4.6 mph - N/A   Clear
1:52 PM 75.9 °F 51.1 °F 42% 30.06 in 10.0 mi Variable 4.6 mph - N/A   Clear
2:52 PM 77.0 °F 51.1 °F 40% 30.04 in 10.0 mi Variable 3.5 mph - N/A   Clear
3:52 PM 73.9 °F 48.9 °F 41% 30.03 in 10.0 mi SW 5.8 mph - N/A   Clear
4:52 PM 75.9 °F 51.1 °F 42% 30.03 in 10.0 mi South 8.1 mph - N/A   Clear
5:52 PM 73.0 °F 52.0 °F 48% 30.03 in 10.0 mi SSW 6.9 mph - N/A   Clear
6:52 PM 71.1 °F 53.1 °F 53% 30.02 in 10.0 mi SSW 4.6 mph - N/A   Clear
7:52 PM 69.1 °F 55.0 °F 61% 30.03 in 10.0 mi SSW 4.6 mph - N/A   Clear
8:52 PM 66.9 °F 55.9 °F 68% 30.04 in 10.0 mi Calm Calm - N/A   Clear
9:52 PM 66.9 °F 55.9 °F 68% 30.04 in 10.0 mi Calm Calm - N/A   Clear
10:52 PM 66.9 °F 55.0 °F 66% 30.03 in 10.0 mi SE 4.6 mph - N/A   Overcast
11:52 PM 66.0 °F 55.0 °F 68% 30.04 in 10.0 mi SSE 4.6 mph - N/A   Overcast